QPF
0.01 0.01 0.00 0.00 0.00 0.00 0.00 0.00 0.00 0.00 0.00 0.00 0.00 0.03 0.03 0.02 0.02 0.02 0.03 0.03 0.02 0.02 0.01 0.01 0.01 0.01 0.01 0.00 0.00 0.01 0.01 0.01 0.02 0.03 0.05 0.08 0.11 0.14 0.11 0.07 0.04 0.02 0.02 0.02
0.00 0.01 0.01 0.00 0.00 0.00 0.00 0.00 0.00 0.00 0.00 0.00 0.00 0.02 0.04 0.03 0.01 0.01 0.02 0.02 0.03 0.02 0.02 0.01 0.01 0.01 0.01 0.01 0.01 0.01 0.01 0.01 0.02 0.03 0.03 0.04 0.05 0.08 0.11 0.09 0.07 0.05 0.03 0.02
0.00 0.01 0.01 0.01 0.00 0.00 0.00 0.00 0.00 0.00 0.00 0.00 0.01 0.01 0.02 0.03 0.01 0.01 0.01 0.01 0.02 0.02 0.01 0.01 0.01 0.01 0.01 0.01 0.01 0.01 0.01 0.02 0.02 0.03 0.03 0.03 0.05 0.05 0.05 0.06 0.06 0.07 0.05 0.03
0.00 0.01 0.01 0.01 0.00 0.00 0.00 0.01 0.00 0.00 0.00 0.00 0.01 0.01 0.01 0.01 0.01 0.01 0.00 0.01 0.01 0.01 0.01 0.01 0.02 0.02 0.02 0.02 0.02 0.01 0.01 0.02 0.03 0.03 0.04 0.04 0.03 0.03 0.04 0.05 0.05 0.05 0.05 0.05
0.01 0.00 0.00 0.00 0.00 0.00 0.00 0.01 0.01 0.00 0.00 0.00 0.01 0.01 0.01 0.00 0.00 0.00 0.00 0.01 0.01 0.01 0.01 0.01 0.01 0.02 0.01 0.02 0.02 0.01 0.02 0.02 0.03 0.04 0.03 0.03 0.03 0.03 0.04 0.06 0.04 0.03 0.03 0.03
0.01 0.01 0.00 0.00 0.00 0.00 0.00 0.00 0.00 0.00 0.00 0.00 0.00 0.00 0.00 0.00 0.00 0.00 0.01 0.01 0.01 0.01 0.01 0.01 0.01 0.01 0.01 0.01 0.01 0.02 0.02 0.02 0.04 0.05 0.04 0.03 0.03 0.03 0.04 0.06 0.07 0.06 0.04 0.04
0.01 0.01 0.01 0.01 0.01 0.00 0.00 0.00 0.00 0.00 0.00 0.00 0.00 0.00 0.00 0.00 0.00 0.00 0.00 0.00 0.00 0.00 0.00 0.00 0.01 0.01 0.01 0.01 0.01 0.01 0.01 0.02 0.04 0.06 0.07 0.05 0.04 0.04 0.04 0.06 0.09 0.10 0.08 0.05
0.01 0.01 0.01 0.01 0.01 0.01 0.00 0.00 0.00 0.00 0.00 0.01 0.01 0.01 0.01 0.01 0.00 0.00 0.00 0.00 0.00 0.00 0.00 0.00 0.01 0.00 0.00 0.01 0.01 0.01 0.01 0.01 0.02 0.04 0.04 0.05 0.06 0.04 0.04 0.06 0.09 0.10 0.11 0.09
0.01 0.01 0.00 0.00 0.00 0.00 0.00 0.00 0.00 0.00 0.00 0.00 0.00 0.01 0.01 0.01 0.01 0.01 0.00 0.00 0.00 0.00 0.00 0.00 0.00 0.00 0.00 0.00 0.00 0.01 0.01 0.01 0.02 0.02 0.02 0.02 0.04 0.05 0.04 0.05 0.06 0.07 0.09 0.10
0.01 0.00 0.00 0.00 0.00 0.00 0.00 0.00 0.00 0.00 0.00 0.00 0.00 0.00 0.00 0.00 0.00 0.00 0.00 0.00 0.00 0.00 0.00 0.00 0.00 0.00 0.00 0.00 0.00 0.01 0.01 0.02 0.02 0.02 0.02 0.02 0.02 0.03 0.04 0.04 0.04 0.04 0.05 0.07
0.01 0.01 0.00 0.00 0.00 0.00 0.00 0.00 0.00 0.00 0.00 0.00 0.00 0.00 0.00 0.00 0.00 0.00 0.00 0.00 0.00 0.00 0.00 0.00 0.00 0.00 0.00 0.00 0.01 0.01 0.01 0.02 0.03 0.03 0.02 0.02 0.02 0.02 0.03 0.03 0.04 0.04 0.04 0.05
0.01 0.01 0.00 0.00 0.00 0.00 0.00 0.00 0.00 0.00 0.00 0.00 0.00 0.00 0.00 0.00 0.00 0.00 0.00 0.00 0.00 0.00 0.00 0.00 0.00 0.00 0.00 0.00 0.00 0.01 0.01 0.02 0.02 0.02 0.02 0.01 0.02 0.03 0.03 0.02 0.03 0.04 0.05 0.05
0.01 0.01 0.00 0.00 0.00 0.00 0.00 0.00 0.00 0.00 0.00 0.00 0.00 0.00 0.00 0.00 0.00 0.00 0.00 0.00 0.00 0.00 0.00 0.00 0.00 0.00 0.00 0.00 0.00 0.01 0.02 0.02 0.02 0.01 0.01 0.01 0.01 0.02 0.03 0.03 0.02 0.02 0.04 0.05
0.00 0.00 0.00 0.00 0.00 0.00 0.00 0.00 0.00 0.00 0.00 0.00 0.00 0.00 0.00 0.00 0.00 0.00 0.00 0.00 0.00 0.00 0.00 0.00 0.00 0.00 0.00 0.00 0.00 0.01 0.01 0.02 0.03 0.03 0.01 0.01 0.01 0.02 0.03 0.04 0.03 0.02 0.02 0.03
0.01 0.01 0.01 0.01 0.00 0.00 0.00 0.00 0.00 0.00 0.00 0.00 0.00 0.00 0.00 0.00 0.00 0.00 0.00 0.00 0.00 0.00 0.00 0.00 0.00 0.00 0.00 0.00 0.00 0.00 0.00 0.01 0.01 0.02 0.03 0.02 0.02 0.02 0.03 0.04 0.05 0.05 0.04 0.03
0.00 0.00 0.00 0.00 0.00 0.00 0.00 0.00 0.00 0.00 0.00 0.00 0.00 0.00 0.00 0.00 0.00 0.00 0.00 0.00 0.00 0.00 0.00 0.00 0.00 0.00 0.00 0.00 0.00 0.00 0.00 0.01 0.01 0.01 0.02 0.03 0.03 0.02 0.02 0.03 0.03 0.04 0.04 0.04
0.00 0.00 0.00 0.00 0.00 0.00 0.00 0.00 0.00 0.00 0.00 0.00 0.00 0.00 0.00 0.00 0.00 0.00 0.00 0.00 0.00 0.00 0.00 0.00 0.00 0.00 0.00 0.00 0.00 0.00 0.00 0.01 0.01 0.01 0.01 0.01 0.02 0.03 0.03 0.02 0.02 0.03 0.03 0.03
0.00 0.00 0.00 0.00 0.00 0.00 0.00 0.00 0.00 0.00 0.00 0.00 0.00 0.00 0.00 0.00 0.00 0.00 0.00 0.00 0.00 0.00 0.00 0.00 0.00 0.00 0.00 0.01 0.01 0.00 0.00 0.01 0.01 0.01 0.01 0.01 0.01 0.01 0.01 0.02 0.02 0.01 0.01 0.01
0.00 0.00 0.00 0.00 0.00 0.00 0.00 0.00 0.00 0.00 0.00 0.00 0.00 0.00 0.00 0.00 0.00 0.00 0.00 0.00 0.00 0.00 0.00 0.01 0.01 0.01 0.01 0.01 0.01 0.01 0.01 0.01 0.01 0.01 0.01 0.01 0.02 0.02 0.01 0.01 0.01 0.01 0.01 0.01
0.00 0.00 0.00 0.00 0.00 0.00 0.00 0.00 0.00 0.00 0.00 0.00 0.00 0.00 0.00 0.00 0.00 0.00 0.00 0.00 0.00 0.00 0.01 0.01 0.01 0.01 0.01 0.01 0.02 0.01 0.01 0.01 0.01 0.02 0.02 0.02 0.02 0.02 0.03 0.02 0.01 0.01 0.01 0.01
0.00 0.00 0.00 0.00 0.00 0.00 0.00 0.00 0.00 0.00 0.00 0.00 0.00 0.00 0.00 0.00 0.00 0.00 0.00 0.00 0.00 0.00 0.00 0.00 0.01 0.02 0.02 0.02 0.02 0.02 0.02 0.02 0.02 0.02 0.03 0.02 0.02 0.02 0.03 0.03 0.03 0.02 0.02 0.02
0.00 0.00 0.00 0.00 0.00 0.00 0.00 0.00 0.00 0.00 0.00 0.00 0.00 0.01 0.00 0.00 0.00 0.00 0.00 0.00 0.00 0.00 0.00 0.00 0.01 0.02 0.04 0.05 0.04 0.03 0.03 0.03 0.02 0.02 0.02 0.02 0.02 0.02 0.02 0.03 0.04 0.03 0.03 0.03
0.00 0.00 0.00 0.00 0.00 0.00 0.00 0.00 0.00 0.00 0.00 0.01 0.01 0.01 0.01 0.00 0.00 0.00 0.00 0.00 0.00 0.00 0.01 0.01 0.02 0.02 0.03 0.05 0.05 0.05 0.03 0.02 0.02 0.01 0.01 0.02 0.02 0.02 0.02 0.02 0.02 0.02 0.02 0.02
0.00 0.00 0.00 0.00 0.00 0.00 0.00 0.00 0.00 0.00 0.01 0.01 0.01 0.01 0.01 0.00 0.00 0.00 0.00 0.00 0.01 0.01 0.01 0.02 0.02 0.01 0.01 0.02 0.04 0.05 0.04 0.03 0.02 0.01 0.00 0.01 0.01 0.02 0.02 0.02 0.02 0.02 0.01 0.02
0.00 0.00 0.00 0.00 0.01 0.01 0.01 0.01 0.00 0.01 0.01 0.01 0.01 0.01 0.00 0.00 0.00 0.00 0.01 0.01 0.01 0.01 0.01 0.01 0.01 0.01 0.01 0.01 0.02 0.02 0.03 0.03 0.03 0.02 0.01 0.01 0.01 0.01 0.02 0.02 0.03 0.02 0.01 0.01
0.01 0.01 0.01 0.01 0.01 0.01 0.01 0.01 0.01 0.01 0.01 0.01 0.01 0.01 0.01 0.01 0.01 0.01 0.01 0.01 0.01 0.01 0.01 0.01 0.00 0.00 0.01 0.01 0.01 0.01 0.01 0.02 0.02 0.02 0.02 0.01 0.01 0.01 0.01 0.01 0.01 0.01 0.01 0.01
0.01 0.01 0.01 0.01 0.01 0.01 0.01 0.01 0.01 0.01 0.01 0.01 0.01 0.01 0.01 0.01 0.01 0.01 0.00 0.01 0.01 0.00 0.00 0.00 0.00 0.00 0.00 0.01 0.01 0.01 0.01 0.01 0.01 0.01 0.02 0.02 0.01 0.01 0.01 0.01 0.01 0.01 0.01 0.01
MSLP
1013.88 1014.48 1014.97 1015.31 1015.46 1015.41 1015.16 1014.74 1014.21 1013.65 1013.13 1012.72 1012.48 1012.46 1012.66 1013.05 1013.60 1014.24 1014.92 1015.57 1016.15 1016.64 1017.02 1017.31 1017.53 1017.70 1017.84 1017.96 1018.07 1018.16 1018.23 1018.26 1018.24 1018.17 1018.06 1017.91 1017.73 1017.53 1017.31 1017.08 1016.83 1016.55 1016.24 1015.90
1013.88 1014.33 1014.63 1014.75 1014.67 1014.40 1013.98 1013.46 1012.90 1012.38 1011.96 1011.70 1011.66 1011.82 1012.19 1012.72 1013.37 1014.08 1014.79 1015.45 1016.04 1016.54 1016.95 1017.29 1017.57 1017.81 1018.02 1018.22 1018.38 1018.51 1018.59 1018.62 1018.59 1018.50 1018.37 1018.20 1018.00 1017.79 1017.57 1017.33 1017.07 1016.79 1016.46 1016.10
1013.92 1014.19 1014.27 1014.17 1013.87 1013.41 1012.84 1012.24 1011.67 1011.20 1010.90 1010.81 1010.94 1011.29 1011.82 1012.48 1013.22 1013.99 1014.72 1015.40 1015.99 1016.49 1016.93 1017.30 1017.64 1017.94 1018.22 1018.47 1018.68 1018.84 1018.95 1018.98 1018.94 1018.85 1018.70 1018.53 1018.33 1018.12 1017.91 1017.67 1017.42 1017.12 1016.78 1016.40
1013.95 1014.03 1013.90 1013.59 1013.09 1012.47 1011.80 1011.15 1010.59 1010.20 1010.02 1010.08 1010.38 1010.88 1011.56 1012.34 1013.16 1013.97 1014.74 1015.42 1016.02 1016.53 1016.99 1017.39 1017.76 1018.11 1018.44 1018.73 1018.98 1019.16 1019.28 1019.31 1019.28 1019.19 1019.05 1018.89 1018.71 1018.52 1018.32 1018.10 1017.85 1017.56 1017.21 1016.80
1013.92 1013.80 1013.49 1012.99 1012.34 1011.62 1010.88 1010.21 1009.70 1009.39 1009.33 1009.53 1009.98 1010.62 1011.42 1012.29 1013.18 1014.04 1014.82 1015.52 1016.13 1016.65 1017.12 1017.55 1017.95 1018.32 1018.68 1018.99 1019.25 1019.45 1019.57 1019.62 1019.59 1019.51 1019.40 1019.26 1019.11 1018.95 1018.78 1018.58 1018.35 1018.06 1017.70 1017.27
1013.75 1013.46 1012.99 1012.36 1011.62 1010.84 1010.09 1009.45 1009.01 1008.79 1008.85 1009.17 1009.74 1010.49 1011.38 1012.32 1013.26 1014.15 1014.96 1015.67 1016.28 1016.82 1017.31 1017.75 1018.16 1018.55 1018.91 1019.23 1019.50 1019.69 1019.82 1019.87 1019.87 1019.81 1019.72 1019.62 1019.51 1019.39 1019.25 1019.08 1018.86 1018.57 1018.20 1017.75
1013.41 1012.99 1012.41 1011.71 1010.93 1010.15 1009.44 1008.87 1008.52 1008.41 1008.57 1008.99 1009.65 1010.48 1011.42 1012.40 1013.37 1014.28 1015.11 1015.83 1016.46 1017.01 1017.50 1017.96 1018.38 1018.77 1019.13 1019.44 1019.70 1019.90 1020.03 1020.09 1020.11 1020.08 1020.04 1019.98 1019.91 1019.83 1019.72 1019.57 1019.36 1019.06 1018.67 1018.19
1012.90 1012.38 1011.75 1011.04 1010.29 1009.57 1008.94 1008.48 1008.23 1008.23 1008.48 1008.99 1009.70 1010.57 1011.54 1012.54 1013.51 1014.43 1015.25 1015.99 1016.62 1017.19 1017.69 1018.15 1018.58 1018.97 1019.32 1019.63 1019.88 1020.08 1020.21 1020.30 1020.34 1020.35 1020.35 1020.33 1020.31 1020.26 1020.17 1020.03 1019.81 1019.49 1019.08 1018.56
1012.27 1011.71 1011.08 1010.41 1009.74 1009.12 1008.62 1008.29 1008.16 1008.26 1008.60 1009.15 1009.89 1010.77 1011.73 1012.72 1013.68 1014.58 1015.40 1016.13 1016.78 1017.35 1017.87 1018.34 1018.76 1019.15 1019.50 1019.80 1020.05 1020.25 1020.40 1020.50 1020.58 1020.63 1020.67 1020.70 1020.71 1020.68 1020.61 1020.46 1020.22 1019.88 1019.42 1018.87
1011.62 1011.05 1010.47 1009.88 1009.33 1008.85 1008.50 1008.30 1008.29 1008.48 1008.88 1009.47 1010.22 1011.08 1012.01 1012.95 1013.88 1014.75 1015.55 1016.28 1016.93 1017.51 1018.04 1018.51 1018.94 1019.33 1019.68 1019.97 1020.22 1020.43 1020.60 1020.73 1020.85 1020.94 1021.03 1021.09 1021.13 1021.12 1021.04 1020.88 1020.61 1020.23 1019.74 1019.14
1011.03 1010.50 1009.99 1009.51 1009.09 1008.77 1008.56 1008.50 1008.60 1008.88 1009.33 1009.93 1010.66 1011.48 1012.36 1013.25 1014.13 1014.97 1015.75 1016.46 1017.10 1017.69 1018.22 1018.70 1019.13 1019.52 1019.86 1020.16 1020.42 1020.64 1020.83 1021.00 1021.15 1021.29 1021.41 1021.51 1021.57 1021.56 1021.48 1021.30 1021.00 1020.59 1020.05 1019.42
1010.58 1010.10 1009.68 1009.32 1009.04 1008.86 1008.79 1008.85 1009.05 1009.40 1009.88 1010.48 1011.18 1011.96 1012.78 1013.62 1014.44 1015.23 1015.98 1016.68 1017.31 1017.89 1018.42 1018.90 1019.33 1019.72 1020.06 1020.36 1020.62 1020.86 1021.07 1021.27 1021.46 1021.64 1021.80 1021.92 1022.00 1022.01 1021.92 1021.73 1021.41 1020.96 1020.40 1019.75
1010.27 1009.85 1009.52 1009.27 1009.11 1009.05 1009.11 1009.27 1009.55 1009.95 1010.45 1011.05 1011.73 1012.47 1013.24 1014.02 1014.80 1015.55 1016.26 1016.93 1017.55 1018.12 1018.64 1019.11 1019.53 1019.91 1020.24 1020.54 1020.81 1021.06 1021.30 1021.52 1021.75 1021.96 1022.16 1022.31 1022.41 1022.43 1022.35 1022.15 1021.82 1021.37 1020.80 1020.15
1010.08 1009.72 1009.46 1009.30 1009.24 1009.28 1009.43 1009.68 1010.02 1010.46 1010.99 1011.59 1012.25 1012.96 1013.68 1014.43 1015.16 1015.87 1016.56 1017.20 1017.80 1018.35 1018.85 1019.30 1019.71 1020.07 1020.39 1020.69 1020.96 1021.22 1021.47 1021.72 1021.98 1022.22 1022.44 1022.63 1022.75 1022.79 1022.72 1022.53 1022.22 1021.78 1021.24 1020.60
1009.93 1009.63 1009.43 1009.34 1009.35 1009.46 1009.68 1009.99 1010.38 1010.86 1011.41 1012.02 1012.68 1013.36 1014.07 1014.79 1015.49 1016.17 1016.83 1017.44 1018.01 1018.54 1019.01 1019.44 1019.82 1020.17 1020.48 1020.77 1021.04 1021.31 1021.57 1021.85 1022.12 1022.39 1022.64 1022.85 1023.00 1023.06 1023.02 1022.86 1022.58 1022.18 1021.67 1021.09
1009.78 1009.51 1009.36 1009.31 1009.36 1009.53 1009.79 1010.14 1010.58 1011.09 1011.67 1012.30 1012.97 1013.66 1014.36 1015.07 1015.75 1016.41 1017.04 1017.62 1018.16 1018.66 1019.10 1019.50 1019.87 1020.19 1020.49 1020.77 1021.05 1021.32 1021.60 1021.89 1022.18 1022.47 1022.74 1022.97 1023.15 1023.24 1023.23 1023.11 1022.88 1022.53 1022.08 1021.56
1009.56 1009.33 1009.20 1009.18 1009.26 1009.45 1009.75 1010.14 1010.61 1011.16 1011.77 1012.43 1013.12 1013.83 1014.54 1015.24 1015.91 1016.56 1017.16 1017.72 1018.22 1018.69 1019.10 1019.48 1019.82 1020.13 1020.43 1020.71 1021.00 1021.28 1021.58 1021.88 1022.19 1022.49 1022.77 1023.02 1023.21 1023.32 1023.35 1023.27 1023.09 1022.80 1022.42 1021.97
1009.30 1009.09 1008.97 1008.96 1009.05 1009.26 1009.58 1009.99 1010.50 1011.08 1011.73 1012.42 1013.14 1013.87 1014.60 1015.30 1015.97 1016.60 1017.18 1017.71 1018.19 1018.62 1019.01 1019.37 1019.70 1020.01 1020.31 1020.61 1020.91 1021.22 1021.53 1021.85 1022.17 1022.48 1022.77 1023.02 1023.21 1023.34 1023.39 1023.35 1023.21 1022.98 1022.67 1022.29
1009.04 1008.83 1008.71 1008.70 1008.80 1009.01 1009.34 1009.77 1010.31 1010.92 1011.60 1012.32 1013.07 1013.83 1014.56 1015.27 1015.93 1016.54 1017.10 1017.60 1018.06 1018.47 1018.84 1019.19 1019.53 1019.85 1020.18 1020.50 1020.83 1021.16 1021.50 1021.84 1022.16 1022.47 1022.76 1023.00 1023.19 1023.32 1023.37 1023.35 1023.25 1023.08 1022.82 1022.51
1008.84 1008.63 1008.51 1008.49 1008.58 1008.79 1009.12 1009.56 1010.11 1010.74 1011.44 1012.19 1012.96 1013.73 1014.48 1015.18 1015.83 1016.42 1016.95 1017.43 1017.86 1018.25 1018.62 1018.98 1019.33 1019.68 1020.04 1020.40 1020.77 1021.14 1021.50 1021.85 1022.18 1022.49 1022.76 1022.98 1023.15 1023.26 1023.32 1023.31 1023.23 1023.09 1022.89 1022.64
1008.79 1008.56 1008.42 1008.38 1008.45 1008.64 1008.97 1009.41 1009.96 1010.60 1011.32 1012.08 1012.85 1013.62 1014.36 1015.05 1015.68 1016.25 1016.76 1017.21 1017.62 1018.00 1018.37 1018.74 1019.12 1019.50 1019.90 1020.31 1020.72 1021.13 1021.52 1021.88 1022.22 1022.51 1022.76 1022.95 1023.10 1023.19 1023.22 1023.21 1023.15 1023.04 1022.88 1022.68
1008.90 1008.65 1008.48 1008.41 1008.46 1008.63 1008.93 1009.36 1009.90 1010.53 1011.24 1012.00 1012.76 1013.52 1014.24 1014.91 1015.51 1016.05 1016.53 1016.96 1017.36 1017.73 1018.11 1018.49 1018.89 1019.31 1019.75 1020.21 1020.66 1021.10 1021.52 1021.89 1022.23 1022.50 1022.73 1022.89 1023.00 1023.06 1023.08 1023.06 1023.01 1022.92 1022.80 1022.65
1009.18 1008.90 1008.70 1008.59 1008.60 1008.75 1009.01 1009.41 1009.93 1010.54 1011.23 1011.96 1012.70 1013.43 1014.12 1014.76 1015.33 1015.84 1016.29 1016.70 1017.08 1017.45 1017.82 1018.22 1018.64 1019.10 1019.57 1020.06 1020.54 1021.01 1021.44 1021.83 1022.15 1022.42 1022.62 1022.75 1022.84 1022.88 1022.88 1022.86 1022.81 1022.75 1022.67 1022.57
1009.57 1009.26 1009.02 1008.88 1008.85 1008.96 1009.19 1009.55 1010.02 1010.60 1011.25 1011.94 1012.65 1013.34 1013.99 1014.59 1015.13 1015.61 1016.03 1016.42 1016.78 1017.14 1017.52 1017.92 1018.36 1018.83 1019.32 1019.83 1020.33 1020.81 1021.25 1021.64 1021.96 1022.21 1022.39 1022.51 1022.57 1022.60 1022.60 1022.58 1022.55 1022.52 1022.49 1022.44
1009.97 1009.64 1009.39 1009.22 1009.16 1009.22 1009.41 1009.72 1010.15 1010.68 1011.28 1011.92 1012.58 1013.23 1013.84 1014.40 1014.90 1015.35 1015.75 1016.11 1016.46 1016.81 1017.18 1017.59 1018.02 1018.49 1018.99 1019.50 1020.00 1020.48 1020.92 1021.30 1021.61 1021.85 1022.02 1022.14 1022.20 1022.23 1022.23 1022.24 1022.24 1022.24 1022.25 1022.25
1010.32 1009.99 1009.72 1009.53 1009.45 1009.48 1009.63 1009.90 1010.28 1010.75 1011.30 1011.88 1012.49 1013.09 1013.65 1014.18 1014.65 1015.07 1015.44 1015.79 1016.12 1016.46 1016.82 1017.20 1017.63 1018.08 1018.56 1019.06 1019.55 1020.01 1020.44 1020.81 1021.11 1021.35 1021.52 1021.64 1021.72 1021.76 1021.80 1021.82 1021.86 1021.90 1021.96 1022.01
1010.55 1010.24 1009.98 1009.79 1009.69 1009.70 1009.82 1010.04 1010.37 1010.79 1011.28 1011.81 1012.36 1012.90 1013.43 1013.91 1014.35 1014.75 1015.11 1015.44 1015.75 1016.07 1016.41 1016.78 1017.18 1017.60 1018.06 1018.52 1018.98 1019.43 1019.83 1020.19 1020.49 1020.73 1020.92 1021.05 1021.15 1021.23 1021.29 1021.35 1021.43 1021.51 1021.61 1021.71
Thickness
5666 5672 5673 5673 5675 5676 5670 5664 5657 5664 5669 5678 5683 5686 5687 5686 5685 5682 5680 5679 5678 5675 5673 5671 5670 5669 5668 5666 5665 5663 5661 5659 5658 5657 5656 5655 5653 5652 5652 5651 5650 5649 5648 5646
5659 5667 5667 5665 5671 5672 5672 5671 5667 5667 5670 5683 5684 5683 5680 5678 5677 5675 5673 5673 5672 5671 5668 5666 5665 5664 5662 5660 5658 5656 5654 5653 5652 5650 5649 5648 5647 5646 5645 5644 5643 5642 5641 5640
5640 5652 5654 5650 5666 5669 5669 5672 5669 5662 5670 5677 5674 5674 5674 5673 5672 5670 5668 5668 5667 5665 5663 5662 5660 5659 5656 5654 5652 5649 5647 5646 5645 5644 5642 5641 5641 5639 5638 5637 5636 5634 5634 5634
5630 5636 5630 5655 5673 5674 5668 5668 5670 5670 5671 5672 5673 5673 5673 5671 5667 5665 5664 5663 5662 5660 5658 5657 5655 5653 5651 5648 5645 5643 5640 5639 5638 5637 5636 5635 5634 5633 5631 5630 5629 5628 5627 5627
5620 5621 5631 5652 5666 5668 5661 5658 5666 5664 5665 5666 5666 5663 5660 5664 5663 5661 5661 5659 5657 5655 5653 5651 5649 5647 5643 5640 5638 5636 5634 5633 5632 5631 5629 5628 5627 5626 5626 5624 5623 5621 5620 5619
5615 5616 5618 5644 5663 5669 5660 5647 5661 5661 5658 5656 5655 5641 5645 5656 5656 5654 5653 5652 5650 5648 5646 5643 5642 5640 5636 5633 5631 5630 5629 5628 5627 5625 5623 5622 5621 5620 5619 5618 5617 5615 5613 5613
5611 5610 5622 5646 5657 5658 5636 5640 5656 5656 5654 5651 5646 5644 5647 5649 5648 5647 5645 5644 5643 5641 5638 5636 5635 5633 5630 5627 5626 5626 5625 5623 5621 5619 5617 5616 5614 5613 5612 5611 5609 5607 5605 5605
5605 5603 5617 5646 5647 5639 5640 5647 5649 5648 5648 5645 5643 5643 5642 5641 5638 5637 5635 5634 5634 5631 5628 5628 5627 5626 5623 5621 5621 5620 5618 5616 5614 5612 5611 5609 5606 5604 5604 5603 5600 5598 5596 5595
5613 5618 5632 5640 5641 5643 5642 5640 5641 5640 5641 5639 5636 5633 5633 5631 5628 5627 5626 5625 5624 5622 5620 5619 5618 5618 5615 5615 5614 5612 5610 5608 5606 5604 5602 5600 5598 5596 5594 5593 5592 5590 5588 5587
5609 5618 5624 5629 5633 5635 5636 5635 5635 5635 5633 5631 5627 5625 5623 5620 5618 5617 5616 5615 5614 5612 5610 5609 5609 5609 5609 5608 5607 5605 5602 5600 5598 5595 5593 5591 5590 5589 5586 5585 5583 5582 5581 5579
5601 5609 5614 5619 5622 5624 5625 5626 5625 5625 5625 5623 5620 5617 5614 5611 5609 5608 5607 5606 5605 5603 5602 5601 5601 5601 5601 5600 5598 5596 5593 5592 5589 5587 5585 5582 5581 5580 5579 5578 5577 5576 5574 5573
5595 5603 5602 5606 5613 5616 5615 5615 5615 5615 5613 5613 5612 5609 5606 5603 5601 5599 5597 5596 5595 5594 5593 5593 5593 5592 5593 5592 5590 5588 5585 5582 5580 5578 5575 5573 5571 5570 5569 5569 5569 5568 5568 5566
5597 5600 5600 5602 5604 5606 5605 5605 5606 5605 5604 5603 5602 5601 5598 5595 5593 5591 5589 5588 5587 5586 5585 5584 5584 5584 5584 5584 5582 5580 5577 5574 5571 5569 5567 5564 5563 5561 5559 5559 5559 5559 5559 5558
5592 5592 5589 5591 5592 5595 5595 5596 5596 5596 5595 5595 5593 5591 5589 5586 5583 5582 5580 5580 5579 5578 5577 5576 5576 5576 5576 5575 5573 5571 5569 5567 5563 5561 5559 5556 5554 5553 5551 5549 5548 5548 5549 5549
5583 5584 5582 5583 5583 5584 5585 5584 5583 5583 5583 5583 5583 5581 5579 5577 5575 5574 5573 5572 5570 5569 5568 5568 5567 5567 5567 5566 5564 5561 5559 5557 5555 5552 5550 5548 5546 5544 5543 5541 5539 5538 5537 5538
5574 5574 5574 5574 5573 5573 5573 5573 5572 5572 5572 5572 5571 5571 5570 5569 5567 5566 5564 5563 5561 5560 5559 5559 5559 5558 5558 5556 5554 5552 5550 5550 5547 5544 5542 5539 5537 5535 5534 5532 5530 5529 5528 5528
5562 5562 5563 5563 5563 5563 5564 5564 5563 5563 5562 5562 5562 5562 5561 5559 5557 5555 5555 5554 5553 5553 5552 5551 5550 5550 5548 5547 5544 5543 5541 5540 5540 5536 5534 5532 5529 5527 5525 5523 5522 5521 5520 5520
5556 5556 5555 5555 5554 5554 5554 5555 5554 5554 5553 5554 5554 5553 5551 5549 5547 5546 5545 5545 5543 5542 5542 5542 5541 5541 5540 5538 5536 5534 5532 5531 5530 5528 5526 5523 5521 5519 5517 5516 5514 5513 5512 5511
5549 5548 5547 5547 5547 5546 5545 5545 5545 5544 5544 5544 5544 5542 5541 5540 5538 5537 5536 5534 5532 5531 5531 5532 5533 5531 5530 5529 5528 5526 5524 5522 5520 5519 5517 5516 5513 5511 5509 5507 5506 5505 5504 5503
5542 5541 5539 5539 5538 5537 5536 5535 5535 5535 5534 5534 5533 5531 5530 5529 5528 5526 5525 5523 5522 5523 5523 5523 5522 5521 5521 5520 5519 5516 5514 5513 5511 5509 5507 5505 5503 5501 5500 5499 5498 5497 5496 5495
5532 5531 5530 5529 5528 5527 5527 5525 5524 5524 5524 5523 5522 5521 5520 5518 5517 5516 5514 5512 5513 5514 5513 5514 5512 5511 5511 5510 5510 5507 5505 5504 5502 5500 5498 5495 5494 5492 5491 5490 5489 5488 5488 5487
5521 5520 5519 5518 5517 5515 5514 5513 5513 5513 5513 5512 5512 5511 5509 5507 5507 5505 5504 5503 5504 5505 5504 5503 5502 5503 5502 5501 5498 5496 5495 5493 5491 5490 5488 5486 5484 5482 5481 5480 5479 5479 5479 5478
5509 5508 5507 5506 5504 5503 5503 5502 5502 5502 5502 5502 5501 5500 5499 5498 5497 5495 5494 5495 5495 5496 5495 5494 5494 5494 5493 5490 5487 5485 5483 5482 5480 5478 5477 5476 5475 5473 5472 5471 5470 5469 5468 5468
5498 5497 5496 5495 5493 5492 5490 5490 5490 5491 5491 5491 5491 5491 5490 5488 5487 5487 5487 5488 5488 5488 5486 5485 5486 5485 5483 5479 5477 5475 5473 5472 5470 5468 5467 5466 5464 5463 5463 5462 5461 5460 5459 5459
5488 5487 5486 5484 5482 5481 5480 5480 5479 5480 5480 5479 5480 5480 5480 5479 5478 5478 5478 5478 5479 5477 5475 5475 5476 5474 5471 5468 5466 5465 5463 5462 5461 5459 5458 5456 5455 5453 5453 5452 5451 5450 5450 5449
5478 5477 5476 5476 5474 5473 5471 5470 5469 5469 5469 5469 5469 5469 5469 5469 5469 5469 5468 5468 5467 5467 5465 5463 5462 5462 5459 5458 5456 5455 5454 5453 5452 5450 5449 5447 5446 5444 5443 5442 5441 5440 5440 5440
5468 5467 5466 5465 5465 5464 5463 5462 5461 5461 5461 5460 5459 5460 5459 5459 5459 5458 5458 5457 5456 5455 5454 5452 5451 5450 5449 5448 5446 5445 5444 5443 5442 5441 5440 5438 5437 5435 5434 5433 5432 5431 5431 5430